Regional Weather Roundup
Issued by NWS Kansas City/Pleasant Hill, MO

Home | Current Version | Previous Version | Text Only | Print | Product List | Glossary On
Versions: 1 2 3 4 5 6 7 8 9 10 11 12 13 14 15 16 17 18 19 20 21 22 23 24 25 26 27 28 29 30 31 32 33 34 35 36 37 38 39 40 41 42 43 44 45 46 47 48 49 50
000
ASUS43 KEAX 240711
RWREAX

WEATHER ROUNDUP FOR EASTERN KANSAS AND NORTHWEST MISSOURI
NATIONAL WEATHER SERVICE KANSAS CITY/PLEASANT HILL MO
200 AM CDT SUN MAY 24 2015

KSZ040-057-103>105-MOZ028-029-037-043-240800-
...KANSAS CITY METROPOLITAN AREA...

CITY           SKY/WX    TMP DP  RH WIND       PRES   REMARKS
K.C. INTL      RAIN      61  60  97 E16       29.95F
K.C. DOWNTOWN  RAIN      63  60  90 E9        29.95F
LEES SUMMIT    RAIN      62  59  90 E13       29.97F
OLATHE - IXD   LGT RAIN  63  61  93 SE16      29.93F FOG
OLATHE - OJC   LGT RAIN  62  61  96 E14G22    29.93F
LAWRENCE       LGT RAIN  63  61  93 E16       29.91F FOG

$$

MOZ001>008-011>017-020>025-030>033-038>040-044>046-053-054-240800-
...NORTHERN AND CENTRAL MISSOURI...

CITY           SKY/WX    TMP DP  RH WIND       PRES   REMARKS
ST. JOSEPH     RAIN      62  60  93 SE14      29.97F FOG
MOSBY          LGT RAIN  61  61 100 E9        29.99F
WARRENSBURG    DRIZZLE   61  57  88 E8        29.99F
WHITEMAN AFB   NOT AVBL
CLINTON        CLOUDY    63  61  94 E8        29.99S
SEDALIA        CLOUDY    61  57  87 E9        30.02F
WARSAW         NOT AVBL
CHILLICOTHE      N/A     61  60  97 SE9       30.07F
KIRKSVILLE     RAIN      60  59  96 S10       30.12F FOG

$$

MOZ041-047>049-056>058-063>065-088>090-097-240800-
...EASTERN AND SOUTHERN MISSOURI...

CITY           SKY/WX    TMP DP  RH WIND       PRES   REMARKS
ST. LOUIS INTL CLOUDY    70  53  54 SE8       30.12F
SPIRIT OF STL  CLOUDY    65  54  67 E5        30.10F
COLUMBIA       LGT RAIN  61  57  87 E9        30.07F
JEFFERSON CITY CLOUDY    67  53  61 E9        30.05F
ROLLA          CLOUDY    64  53  67 SE9       30.05F
OSAGE BEACH    CLOUDY    66  54  63 SE5       30.03F
SPRINGFIELD    CLOUDY    68  57  68 SE24      29.97F
BRANSON        CLOUDY    64  59  82 SE12      30.01F
JOPLIN         TSTM      67  65  93 SW20      29.96R FOG
WEST PLAINS    CLOUDY    65  54  67 SE8       30.09F

$$

IAZ060-094-KSZ022-034>040-054-083-096-NEZ052-066-093-240800-
...KANSAS...SOUTHEAST NEBRASKA AND IOWA...

CITY           SKY/WX    TMP DP  RH WIND       PRES   REMARKS
TOPEKA         LGT RAIN  64  63  96 E6        29.91F
MANHATTAN      CLOUDY    63  62  97 N3        29.88F
EMPORIA        CLOUDY    63  62  97 S13       29.88F
CHANUTE        CLOUDY    65  64  97 S8        29.89F
WICHITA        CLOUDY    61  60  97 W12       29.89F
OMAHA          RAIN      61  60  97 E6        30.02F FOG
LINCOLN        CLOUDY    62  60  93 E10       29.97F
FALLS CITY     LGT RAIN  62  60  93 SE15      29.94F
LAMONI         RAIN      61  58  90 SE12G20   30.05F FOG
DES MOINES     LGT RAIN  67  53  61 SE10      30.06F

$$




USA.gov is the U.S. government's official web portal to all federal, state and local government web resources and services.